Location: Praha
(50.0830°N, 14.4670°E)
Time: 14:15:56
(UTC+02:00)

ISS - Pass Details

Date: 06 October 2021
Orbit: 417 x 423 km, 51.6° (Epoch: 26 October)

Event Time Altitude Azimuth Distance (km) Brightness Sun altitude
Rises 19:35:13 0° 282° (WNW) 2,365 2.2 -11.4°
Reaches altitude 10° 19:37:59 10° 257° (WSW) 1,498 0.3 -11.8°
Maximum altitude 19:39:56 15° 222° (SW) 1,244 -0.9 -12.1°
Drops below altitude 10° 19:41:52 10° 186° (S) 1,493 -1.0 -12.4°
Enters shadow 19:44:26 - 163° (SSE) 2,284 -0.3 -12.8°
